Tehachapi, CA

9:10 AM PDT on April 25, 2017 (GMT -0700)
Tehachapi Municipal

Weather History for KTSP - November, 2011

Change the Weather History Date:

Friday, November 18, 2011

  Actual Average Record
Temperature  
Mean Temperature 42 °F -  
Max Temperature 46 °F 53 °F 59 °F (2013)
Min Temperature 39 °F 36 °F 28 °F (2015)
Degree Days  
Heating Degree Days 22    
Moisture  
Dew Point 41 °F    
Average Humidity 95    
Maximum Humidity 100    
Minimum Humidity 81    
Precipitation  
Precipitation 0.00 in - - ()
Sea Level Pressure  
Sea Level Pressure 29.95 in    
Wind  
Wind Speed 18 mph (WNW)    
Max Wind Speed 25 mph    
Max Gust Speed 33 mph    
Visibility 3 miles    
Events Fog , Rain    
Averages and records for this station are not official NWS values.
T = Trace of Precipitation, MM = Missing Value Source: NWS Daily Summary

Daily Weather History Graph

Daily Weather History Graph

Search for Another Location

Airport or City:

Trip Planner

Search our weather history database for the weather conditions in past years. The results will help you decide how hot, cold, wet, or windy it might be!

Date:

Astronomy

Nov. 18, 2011 Rise Set
Actual Time 6:31 AM PST 4:46 PM PST
Civil Twilight 6:04 AM PST 5:13 PM PST
Nautical Twilight 5:33 AM PST 5:44 PM PST
Astronomical Twilight 5:03 AM PST 6:14 PM PST
Moon No Moon Rise 12:20 PM PST (11/18)
Length of Visible Light 11h 09m
Length of Day
10h 14m
Waning Gibbous, 48% of the Moon is Illuminated
Nov 18
Waning Gibbous
Nov 24
New
Dec 2
First Quarter
Dec 10
Full
Dec 17
Last Quarter

Hourly Weather History & Observations

Time (PST) Temp. Windchill Dew Point Humidity Pressure Visibility Wind Dir Wind Speed Gust Speed Precip Events Conditions
12:35 AM 44.6 °F 37.4 °F 44.6 °F 100% 30.04 in 1.2 mi WNW 16.1 mph - N/A   Clear
12:55 AM 42.8 °F 35.1 °F 42.8 °F 100% 30.04 in 1.2 mi WNW 16.1 mph - N/A   Clear
1:15 AM 42.8 °F 34.8 °F 42.8 °F 100% 30.03 in 1.0 mi WNW 17.3 mph - N/A   Clear
1:35 AM 42.8 °F 34.3 °F 42.8 °F 100% 30.03 in 0.8 mi WNW 19.6 mph 25.3 mph N/A   Mostly Cloudy
1:55 AM 42.8 °F 34.5 °F 42.8 °F 100% 30.03 in 0.5 mi WNW 18.4 mph - N/A Fog Fog
2:15 AM 42.8 °F 34.0 °F 42.8 °F 100% 30.02 in 0.8 mi WNW 20.7 mph 26.5 mph N/A   Overcast
2:35 AM 42.8 °F 34.3 °F 42.8 °F 100% 30.02 in 1.0 mi WNW 19.6 mph - N/A   Mostly Cloudy
2:55 AM 42.8 °F 34.0 °F 42.8 °F 100% 30.01 in 0.5 mi WNW 20.7 mph - N/A Fog Fog
3:35 AM 44.6 °F 37.4 °F 44.6 °F 100% 30.00 in 1.2 mi WNW 16.1 mph 25.3 mph N/A   Mostly Cloudy
3:55 AM 44.6 °F 37.8 °F 44.6 °F 100% 29.99 in 1.8 mi WNW 15.0 mph 21.9 mph N/A   Scattered Clouds
4:15 AM 42.8 °F 34.8 °F 42.8 °F 100% 29.98 in 1.2 mi WNW 17.3 mph 24.2 mph N/A   Scattered Clouds
4:35 AM 42.8 °F 34.3 °F 42.8 °F 100% 29.98 in 1.5 mi WNW 19.6 mph - N/A   Clear
4:55 AM 42.8 °F 34.3 °F 42.8 °F 100% 29.98 in 1.8 mi WNW 19.6 mph 26.5 mph N/A   Scattered Clouds
5:15 AM 44.6 °F 36.9 °F 42.8 °F 93% 29.97 in 3.0 mi West 18.4 mph 23.0 mph N/A   Partly Cloudy
5:35 AM 44.6 °F 36.6 °F 41.0 °F 87% 29.97 in 3.0 mi West 19.6 mph 25.3 mph N/A   Partly Cloudy
5:55 AM 44.6 °F 37.4 °F 41.0 °F 87% 29.97 in 3.0 mi WNW 16.1 mph 20.7 mph N/A   Scattered Clouds
6:15 AM 42.8 °F 35.1 °F 41.0 °F 93% 29.97 in 1.8 mi WNW 16.1 mph 24.2 mph N/A   Scattered Clouds
6:55 AM 41.0 °F 32.2 °F 41.0 °F 100% 29.98 in 0.2 mi NW 18.4 mph 24.2 mph N/A Fog Fog
7:35 AM 41.0 °F 32.5 °F 41.0 °F 100% 29.98 in 0.2 mi WNW 17.3 mph 24.2 mph N/A Fog Fog
7:55 AM 41.0 °F 32.5 °F 41.0 °F 100% 29.99 in 0.2 mi WNW 17.3 mph 21.9 mph N/A Rain Light Rain
8:15 AM 41.0 °F 31.6 °F 41.0 °F 100% 29.99 in 0.2 mi WNW 20.7 mph 25.3 mph N/A Rain Light Rain
8:35 AM 41.0 °F 32.8 °F 41.0 °F 100% 29.99 in 0.2 mi WNW 16.1 mph 23.0 mph N/A Rain Light Rain
8:55 AM 41.0 °F 32.5 °F 41.0 °F 100% 29.99 in 0.2 mi WNW 17.3 mph - N/A Fog Fog
9:15 AM 41.0 °F 33.1 °F 41.0 °F 100% 29.99 in 0.8 mi WNW 15.0 mph 23.0 mph N/A   Mostly Cloudy
9:35 AM 42.8 °F 34.5 °F 42.8 °F 100% 29.99 in 0.8 mi West 18.4 mph - N/A   Mostly Cloudy
9:55 AM 41.0 °F 32.2 °F 41.0 °F 100% 29.99 in 0.8 mi West 18.4 mph 23.0 mph N/A   Overcast
10:15 AM 41.0 °F 33.1 °F 41.0 °F 100% 29.99 in 0.8 mi WNW 15.0 mph 20.7 mph N/A   Overcast
10:35 AM 42.8 °F 35.4 °F 42.8 °F 100% 29.98 in 0.5 mi WNW 15.0 mph 24.2 mph N/A Fog Fog
10:55 AM 42.8 °F 35.4 °F 42.8 °F 100% 29.98 in 1.0 mi WNW 15.0 mph 20.7 mph N/A   Overcast
11:35 AM 42.8 °F 34.5 °F 42.8 °F 100% 29.96 in 1.8 mi West 18.4 mph 24.2 mph N/A   Mist
11:55 AM 44.6 °F 37.8 °F 44.6 °F 100% 29.96 in 2.5 mi WNW 15.0 mph 20.7 mph N/A   Partly Cloudy
12:15 PM 42.8 °F 35.1 °F 42.8 °F 100% 29.95 in 0.5 mi West 16.1 mph 23.0 mph N/A Fog Fog
12:55 PM 44.6 °F 37.2 °F 41.0 °F 87% 29.93 in 3.0 mi WNW 17.3 mph - N/A   Partly Cloudy
1:15 PM 44.6 °F 37.2 °F 41.0 °F 87% 29.93 in 3.0 mi WNW 17.3 mph 21.9 mph N/A   Partly Cloudy
1:35 PM 46.4 °F 39.5 °F 41.0 °F 81% 29.92 in 3.0 mi WNW 17.3 mph 25.3 mph N/A   Partly Cloudy
1:55 PM 44.6 °F 36.9 °F 42.8 °F 93% 29.92 in 1.5 mi NW 18.4 mph 21.9 mph N/A   Mostly Cloudy
2:15 PM 44.6 °F 37.8 °F 41.0 °F 87% 29.92 in 3.0 mi NW 15.0 mph 27.6 mph N/A   Scattered Clouds
3:15 PM 41.0 °F 31.6 °F 41.0 °F 100% 29.91 in 1.0 mi NW 20.7 mph 31.1 mph N/A   Overcast
3:35 PM 41.0 °F 30.9 °F 41.0 °F 100% 29.91 in 2.0 mi WNW 24.2 mph 29.9 mph N/A   Scattered Clouds
3:55 PM 41.0 °F 31.1 °F 39.2 °F 93% 29.91 in 2.5 mi WNW 23.0 mph 31.1 mph N/A   Partly Cloudy
4:15 PM 41.0 °F 32.2 °F 39.2 °F 93% 29.90 in 3.0 mi NW 18.4 mph 27.6 mph N/A   Partly Cloudy
4:35 PM 41.0 °F 31.9 °F 39.2 °F 93% 29.90 in 4.0 mi NW 19.6 mph 25.3 mph N/A   Clear
4:55 PM 41.0 °F 31.9 °F 39.2 °F 93% 29.90 in 3.0 mi NW 19.6 mph 26.5 mph N/A   Clear
5:15 PM 41.0 °F 31.6 °F 39.2 °F 93% 29.90 in 5.0 mi NW 20.7 mph 31.1 mph N/A   Clear
5:35 PM 41.0 °F 31.1 °F 39.2 °F 93% 29.90 in 3.0 mi WNW 23.0 mph 33.4 mph N/A   Partly Cloudy
5:55 PM 41.0 °F 30.9 °F 41.0 °F 100% 29.89 in 1.2 mi WNW 24.2 mph 31.1 mph N/A Rain Light Rain
6:15 PM 41.0 °F 31.9 °F 41.0 °F 100% 29.89 in 3.0 mi WNW 19.6 mph 28.8 mph N/A Rain Light Rain
6:55 PM 41.0 °F 32.8 °F 39.2 °F 93% 29.89 in 6.0 mi WNW 16.1 mph 25.3 mph N/A   Partly Cloudy
7:15 PM 41.0 °F 31.6 °F 39.2 °F 93% 29.88 in 4.0 mi WNW 20.7 mph 27.6 mph N/A   Partly Cloudy
7:35 PM 41.0 °F 31.6 °F 39.2 °F 93% 29.88 in 5.0 mi West 20.7 mph 32.2 mph N/A   Partly Cloudy
7:55 PM 41.0 °F 31.6 °F 39.2 °F 93% 29.88 in 5.0 mi WNW 20.7 mph 31.1 mph N/A   Clear
8:15 PM 41.0 °F 30.9 °F 37.4 °F 87% 29.88 in 7.0 mi West 24.2 mph 28.8 mph N/A   Clear
8:35 PM 41.0 °F 31.1 °F 37.4 °F 87% 29.88 in 6.0 mi WNW 23.0 mph 29.9 mph N/A   Clear
8:55 PM 41.0 °F 31.1 °F 37.4 °F 87% 29.88 in 6.0 mi NW 23.0 mph 33.4 mph N/A   Clear
9:15 PM 41.0 °F 30.9 °F 37.4 °F 87% 29.89 in 6.0 mi NW 24.2 mph 33.4 mph N/A   Partly Cloudy
9:35 PM 39.2 °F 29.0 °F 37.4 °F 93% 29.89 in 5.0 mi WNW 21.9 mph 33.4 mph N/A   Partly Cloudy
9:55 PM 39.2 °F 29.0 °F 37.4 °F 93% 29.89 in 5.0 mi WNW 21.9 mph 32.2 mph N/A   Clear
10:15 PM 39.2 °F 28.3 °F 37.4 °F 93% 29.90 in 6.0 mi WNW 25.3 mph 32.2 mph N/A   Clear
10:35 PM 39.2 °F 29.3 °F 37.4 °F 93% 29.89 in 7.0 mi WNW 20.7 mph 31.1 mph N/A   Clear
10:55 PM 39.2 °F 29.0 °F 35.6 °F 87% 29.89 in 8.0 mi NW 21.9 mph 29.9 mph N/A   Partly Cloudy
11:15 PM 39.2 °F 29.3 °F 35.6 °F 87% 29.89 in 7.0 mi NW 20.7 mph 27.6 mph N/A   Scattered Clouds
11:35 PM 39.2 °F 29.3 °F 35.6 °F 87% 29.89 in 7.0 mi WNW 20.7 mph 26.5 mph N/A   Clear
11:55 PM 39.2 °F 29.3 °F 35.6 °F 87% 29.89 in 7.0 mi NW 20.7 mph 28.8 mph N/A   Clear